monetate.net alexa rank chart, monetate.net alexa rank daily changes

monetate.net alexa rank chart, monetate.net alexa rank daily changes

monetate.net
Actual rank:
183 296

RANK HISTORY

Date Rank Diff
2017/01/19 183 296 +11 754
2017/01/18 171 542 +9 887
2017/01/17 161 655 +14 137
2017/01/16 147 518 +7 763
2017/01/15 139 755 +2 529
2017/01/14 137 226 -3 096
2017/01/13 140 322 -4 223
2017/01/12 144 545 -2 914
2017/01/11 147 459 +2 552
2017/01/10 144 907 +5 119
2017/01/09 139 788 +1 357
2017/01/08 138 431 -1 871
2017/01/07 140 302 -1 411
2017/01/06 141 713 -4 113
2017/01/05 145 826 -2 933
2017/01/04 148 759 +2 080
2017/01/03 146 679 +2 938
2017/01/02 143 741 +4 400
2017/01/01 139 341 +2 111
2016/12/31 137 230 +1 348
2016/12/30 135 882 +2 326
2016/12/29 133 556 -128
2016/12/28 133 684 +5
2016/12/27 133 679 +1 111
2016/12/26 132 568 +3 234
2016/12/25 129 334 +3 764
2016/12/24 125 570 +2 697
2016/12/23 122 873 +2 006
2016/12/22 120 867 -3 992
2016/12/21 124 859 -7 079
2016/12/20 131 938 +209
2016/12/19 131 729 -1 590
2016/12/18 133 319 -2 044
2016/12/17 135 363 -7 529
2016/12/16 142 892 -4 111
2016/12/15 147 003 -4 712
2016/12/14 151 715 -3 676
2016/12/13 155 391 +124
2016/12/12 155 267 +3 351
2016/12/11 151 916 +1 016
2016/12/10 150 900 -909
2016/12/09 151 809 +2 035
2016/12/08 149 774 -1 772
2016/12/07 151 546 +97
2016/12/06 151 449 +6 017
2016/12/05 145 432 +4 332
2016/12/04 141 100 -287
2016/12/02 141 387 +1 242
2016/12/01 140 145 -6 735
2016/11/30 146 880 +1 977
2016/11/29 144 903 +729
2016/11/28 144 174 +9 936
2016/11/27 134 238 +5 905
2016/11/26 128 333 +2 964
2016/11/25 125 369 -4 944
2016/11/24 130 313 -4 005
2016/11/23 134 318

WIDGET FOR YOUR SITE

DOMAINS WITH THE NEAREST RANK

Domain Rank
sexhdporn.tv 183 291
funandfunction.com 183 292
ma-shops.com 183 293
bnet.hr 183 294
yoganonymous.com 183 295
monetate.net 183 296
textlocal.com 183 297
patozon.net 183 298
valenciabonita.es 183 299
prestigeportraits.com 183 300
intel.com.au 183 301

DOMAINS WITH THE NEAREST RANK BY TLD .net

Domain Rank
borutomanga.net 183 190
civilhetes.net 183 204
speedwiki.net 183 213
omoms.net 183 231
cinemarche.net 183 269
monetate.net 183 296
patozon.net 183 298
bright.net 183 309
wbstatic.net 183 366
like-plus.net 183 382
fmoff2.net 183 400